Flag Weather past 2 weeks in Luxembourg, Luxembourg

Now
55 °F

Fog.


Feels Like: 55 °F
Forecast: 48 / 62 °F
Wind: 3 mph from North

Location: Luxembourg Airport

Current Time: Oct 30, 2014 at 3:00:13 PM

Latest Report: Oct 30, 2014 at 2:20 PM


Visibility: 2 mi

Pressure: 30.24 "Hg

Humidity: 94%

Dew point: 54 °F

Location of LuxembourgLocation

Historic Weather in Luxembourg — Graph

°F

Luxembourg temperature yesterday

Maximum temperature yesterday: 50 °F (at 1:20 PM)
Minimum temperature yesterday: 45 °F (at 12:50 AM)
Average temperature yesterday: 48 °F

Past Weeks' High & Low Weather Summary

 TemperatureHumidityPressure
High70 °F (Oct 19, 2:20 PM)100% (Oct 15, 9:20 PM)30.30 "Hg (Oct 15, 9:20 PM)
Low39 °F (Oct 28, 6:50 AM)59% (Oct 26, 2:20 PM)29.62 "Hg (Oct 21, 4:20 PM)
Average51 °F90%30.08 "Hg
* Reported Oct 15 2:20 PM — Oct 30 1:50 PM, Luxembourg, Weather by CustomWeather, © 2014

Note: Actual official high and low records may vary slightly from our data, if they occured in-between our weather recording intervals... More about our weather records

Advertising

Luxembourg weather history for previous 24 hours

 ConditionsComfort  
Time TempWeatherWind HumidityBarometerVisibility
1:50 PM
Oct 30
55 °FFog.3 mph94%30.24 "Hg1 mi
1:20 PM54 °FFog.3 mph100%30.24 "Hg1 mi
12:50 PM54 °FFog.2 mph100%30.24 "Hg1 mi
12:20 PM54 °FFog.2 mph100%30.24 "Hg1 mi
11:50 AM54 °FFog.2 mph100%30.24 "Hg1 mi
11:20 AM54 °FFog.1 mph100%30.24 "Hg0 mi
10:50 AM52 °FFog.1 mph100%30.24 "Hg0 mi
10:20 AM52 °FFog.1 mph100%30.24 "Hg0 mi
9:50 AM52 °FFog.2 mph100%30.24 "Hg0 mi
9:20 AM50 °FFog.1 mph100%30.21 "Hg0 mi
8:50 AM50 °FFog.2 mph100%30.21 "Hg0 mi
8:20 AM50 °FFog.2 mph100%30.21 "Hg0 mi
7:50 AM50 °FFog.1 mph100%30.21 "Hg0 mi
7:20 AM50 °FFog.2 mph100%30.18 "Hg0 mi
6:50 AM50 °FFog.1 mph100%30.18 "Hg0 mi
6:20 AM50 °FFog.No wind100%30.18 "Hg0 mi
5:50 AM50 °FFog.No wind100%30.18 "Hg0 mi
5:20 AM50 °FFog.1 mph100%30.18 "Hg0 mi
4:50 AM50 °FFog.No wind100%30.15 "Hg0 mi
3:50 AM50 °FFog.2 mph100%30.15 "Hg0 mi
3:20 AM50 °FCool.No wind100%30.15 "HgN/A
2:50 AM50 °FCool.No wind100%30.15 "HgN/A
2:20 AM50 °FCool.No wind94%30.15 "HgN/A
1:50 AM50 °FCool.No wind100%30.15 "HgN/A
1:20 AM50 °FFog.No wind100%30.15 "Hg0 mi
12:50 AM50 °FFog.1 mph94%30.15 "Hg0 mi
12:20 AM50 °FFog.No wind100%30.15 "Hg0 mi
11:50 PM
Oct 29
50 °FFog.1 mph100%30.15 "Hg0 mi
11:20 PM50 °FFog.3 mph100%30.15 "Hg0 mi
10:50 PM50 °FFog.2 mph100%30.12 "Hg0 mi
10:20 PM50 °FFog.No wind100%30.12 "Hg0 mi
9:50 PM50 °FFog.1 mph100%30.12 "Hg0 mi
9:20 PM50 °FFog.2 mph100%30.12 "Hg0 mi
8:50 PM50 °FFog.2 mph94%30.12 "Hg1 mi
8:20 PM50 °FFog.3 mph94%30.12 "Hg0 mi
7:50 PM50 °FFog.3 mph94%30.09 "Hg2 mi
7:20 PM50 °FFog.2 mph94%30.09 "Hg2 mi
6:50 PM48 °FFog.3 mph100%30.09 "Hg2 mi
6:20 PM50 °FDrizzle. Low clouds.1 mph94%30.09 "Hg3 mi
5:50 PM50 °FDrizzle. Low clouds.2 mph94%30.09 "Hg3 mi
5:20 PM50 °FDrizzle. Low clouds.1 mph94%30.09 "Hg3 mi
4:50 PM50 °FDrizzle. Low clouds.1 mph94%30.07 "Hg4 mi
4:20 PM50 °FLow clouds.2 mph94%30.07 "Hg4 mi
3:50 PM50 °FLow clouds.3 mph94%30.07 "Hg6 mi
3:20 PM50 °FLow clouds.3 mph94%30.07 "Hg6 mi
Weather by CustomWeather, © 2014

See weather overviewHow to use our weather pages